GW3550 Weather Reports


Display with metric or nautical units.
time (UTC)temp
F
wind
direction
speed
MPH
gust
MPH
rain 1hr
in
rain 24hr
in
rain mn
in
humidity
%
barometer
mb
20260902065210 74 243 0.0 0.0 0.00 0.00 0.00 96 1021.4
20260902064705 74 243 0.0 0.0 0.00 0.00 0.00 96 1021.2
20260902064201 74 243 0.0 0.0 0.00 0.00 0.00 96 1021.3
20260902063655 74 243 0.0 0.0 0.00 0.00 0.00 96 1021.3
20260902063150 74 243 0.0 0.0 0.00 0.00 0.00 95 1021.6
20260902062649 74 243 0.0 0.0 0.00 0.00 0.00 95 1021.5
20260902062145 74 243 0.0 0.0 0.00 0.00 0.00 94 1021.3
20260902061643 75 243 0.0 0.0 0.00 0.00 0.00 94 1021.4
20260902061140 75 243 0.0 0.0 0.00 0.00 0.00 93 1021.4
20260902060636 75 243 0.0 0.0 0.00 0.00 0.00 93 1021.6
20260902060132 76 243 0.0 0.0 0.00 0.00 0.00 93 1021.4
20260902055628 75 243 0.0 0.0 0.00 0.00 0.00 92 1021.3
20260902055123 75 243 0.0 0.0 0.00 0.00 0.00 93 1021.4
20260902054618 75 243 0.0 0.0 0.00 0.00 0.00 93 1021.6
20260902054114 76 243 0.0 0.0 0.00 0.00 0.00 92 1021.5
20260902053609 76 243 0.0 0.0 0.00 0.00 0.00 91 1021.7
20260902053103 76 243 0.0 0.0 0.00 0.00 0.00 91 1021.5
20260902052557 76 243 0.0 0.0 0.00 0.00 0.00 91 1021.4
20260902052053 76 243 0.0 0.0 0.00 0.00 0.00 91 1021.6
20260902051552 76 243 0.0 0.0 0.00 0.00 0.00 91 1021.7
20260902051052 76 243 0.0 0.0 0.00 0.00 0.00 91 1021.6
20260902050546 76 243 0.0 0.0 0.00 0.00 0.00 90 1021.7
20260902050042 76 243 0.0 0.0 0.00 0.00 0.00 90 1021.6
20260902045537 77 243 0.0 0.0 0.00 0.00 0.00 89 1021.7
20260902045033 77 243 0.0 0.0 0.00 0.00 0.00 89 1021.5
20260902044528 77 243 0.0 0.0 0.00 0.00 0.00 89 1021.7
20260902044023 77 243 0.0 0.0 0.00 0.00 0.00 89 1021.5
20260902043518 77 243 0.0 0.0 0.00 0.00 0.00 89 1021.5
20260902043013 77 243 0.0 0.0 0.00 0.00 0.00 88 1021.7
20260902042512 77 243 0.0 0.0 0.00 0.00 0.00 89 1021.5
20260902042008 77 243 0.0 0.0 0.00 0.00 0.00 89 1021.5
20260902041502 77 243 0.0 0.0 0.00 0.00 0.00 89 1021.5
20260902040956 77 243 0.0 0.0 0.00 0.00 0.00 89 1021.5
20260902040451 77 243 0.0 0.0 0.00 0.00 0.00 89 1021.6
20260902035949 77 243 0.0 0.0 0.00 0.00 0.00 89 1021.6
20260902035444 77 243 0.0 0.0 0.00 0.00 0.00 89 1021.8
20260902034939 77 243 0.0 0.0 0.00 0.00 0.00 89 1021.4
20260902034433 77 243 0.0 0.0 0.00 0.00 0.00 89 1021.4
20260902033932 78 243 0.0 0.0 0.00 0.00 0.00 89 1021.4
20260902033426 77 243 0.0 0.0 0.00 0.00 0.00 89 1021.4
20260902032925 77 243 0.0 0.0 0.00 0.00 0.00 90 1021.3
20260902032420 77 243 0.0 0.0 0.00 0.00 0.00 90 1021.5
20260902031915 77 243 0.0 0.0 0.00 0.00 0.00 91 1021.4
20260902031411 77 243 0.0 0.0 0.00 0.00 0.00 90 1021.3
20260902030907 78 243 0.0 0.0 0.00 0.00 0.00 89 1021.4
20260902030401 79 243 0.0 0.0 0.00 0.00 0.00 87 1021.5
20260902025900 79 243 0.0 0.0 0.00 0.00 0.00 87 1021.6
20260902025355 79 243 0.0 0.0 0.00 0.00 0.00 87 1021.5
20260902024850 79 243 0.0 0.0 0.00 0.00 0.00 87 1021.6
20260902024346 80 243 0.0 0.0 0.00 0.00 0.00 85 1021.3
20260902023841 80 243 0.0 0.0 0.00 0.00 0.00 85 1021.6
20260902023337 80 243 0.0 0.0 0.00 0.00 0.00 85 1021.4
20260902022835 80 243 0.0 0.0 0.00 0.00 0.00 86 1021.5
20260902022331 80 243 0.0 0.0 0.00 0.00 0.00 86 1021.3
20260902021826 80 243 0.0 0.0 0.00 0.00 0.00 84 1021.3
20260902021321 80 243 0.0 0.0 0.00 0.00 0.00 84 1021.2
20260902020817 80 243 0.0 0.0 0.00 0.00 0.00 83 1021.4
20260902020313 80 243 0.0 0.0 0.00 0.00 0.00 84 1021.3
20260902015808 80 243 0.0 0.0 0.00 0.00 0.00 84 1021.2
20260902015306 80 243 0.0 0.0 0.00 0.00 0.00 84 1021.3
20260902014800 81 243 0.0 0.0 0.00 0.00 0.00 84 1021.5
20260902014256 81 243 0.0 0.0 0.00 0.00 0.00 84 1021.3
20260902013755 81 243 0.0 0.0 0.00 0.00 0.00 83 1021.3
20260902013250 81 243 0.0 0.0 0.00 0.00 0.00 82 1021.1
20260902012745 82 243 0.0 0.0 0.00 0.00 0.00 81 1021.3
20260902012241 81 243 0.0 0.0 0.00 0.00 0.00 81 1021.1
20260902011737 82 243 0.0 0.0 0.00 0.00 0.00 78 1021.2
20260902011236 82 243 0.0 0.0 0.00 0.00 0.00 78 1020.9
20260902010736 82 243 0.0 0.0 0.00 0.00 0.00 77 1020.8
20260902010232 83 243 0.0 0.0 0.00 0.00 0.00 76 1020.8
20260902005730 83 243 0.0 0.0 0.00 0.00 0.00 74 1020.8
20260902005226 82 243 0.0 0.0 0.00 0.00 0.00 76 1020.7
20260902004725 83 243 0.0 0.0 0.00 0.00 0.00 75 1020.7
20260902004220 83 243 0.0 0.0 0.00 0.00 0.00 74 1020.7
20260902003715 84 243 0.0 0.0 0.00 0.00 0.00 72 1020.8
20260902003211 83 243 0.0 0.0 0.00 0.00 0.00 74 1020.5
20260902002706 84 243 0.0 0.0 0.00 0.00 0.00 72 1020.8
20260902002201 85 243 0.0 0.0 0.00 0.00 0.00 72 1020.7
20260902001656 85 243 0.0 0.0 0.00 0.00 0.00 71 1020.7
20260902001155 86 243 0.0 0.0 0.00 0.00 0.00 69 1020.7
20260902000650 86 243 0.0 0.0 0.00 0.00 0.00 67 1020.7
20260902000146 86 243 0.0 0.0 0.00 0.00 0.00 65 1020.8
20260901235640 87 243 0.0 0.0 0.00 0.00 0.00 64 1020.7
20260901235135 88 243 0.0 0.0 0.00 0.00 0.00 62 1020.7
20260901234634 88 243 0.0 0.0 0.00 0.00 0.00 61 1020.7
20260901234129 89 243 0.0 0.0 0.00 0.00 0.00 59 1020.8
20260901233624 92 243 0.0 0.0 0.00 0.00 0.00 55 1020.7
20260901233121 93 243 0.0 0.0 0.00 0.00 0.00 57 1020.5
20260901232620 92 243 0.0 0.0 0.00 0.00 0.00 56 1020.8
20260901232116 93 243 0.0 0.0 0.00 0.00 0.00 53 1020.7
20260901231613 93 243 0.0 0.0 0.00 0.00 0.00 54 1020.7
20260901231108 93 243 0.0 0.0 0.00 0.00 0.00 54 1020.7
20260901230604 94 243 0.0 0.0 0.00 0.00 0.00 52 1020.7
20260901230103 94 243 0.0 1.0 0.00 0.00 0.00 51 1020.8
20260901225559 95 231 0.0 2.0 0.00 0.00 0.00 50 1020.5
20260901225058 95 221 0.0 1.0 0.00 0.00 0.00 51 1020.5
20260901224554 94 221 0.0 1.0 0.00 0.00 0.00 51 1020.5
20260901224050 93 221 0.0 1.0 0.00 0.00 0.00 53 1020.7
20260901223545 93 262 0.0 0.0 0.00 0.00 0.00 50 1020.5
20260901223041 93 58 2.0 3.0 0.00 0.00 0.00 52 1020.8
20260901222537 94 359 1.0 2.0 0.00 0.00 0.00 50 1020.9
20260901222033 95 240 0.0 1.0 0.00 0.00 0.00 49 1020.7
20260901221529 94 28 2.0 3.0 0.00 0.00 0.00 49 1020.8
20260901221024 97 332 0.0 0.0 0.00 0.00 0.00 48 1020.4
20260901220524 96 231 0.0 0.0 0.00 0.00 0.00 49 1020.5
20260901220022 96 248 0.0 0.0 0.00 0.00 0.00 47 1020.4
20260901215521 96 248 1.0 1.0 0.00 0.00 0.00 49 1020.7
20260901215021 98 162 0.0 1.0 0.00 0.00 0.00 46 1020.2
20260901214520 96 209 0.0 0.0 0.00 0.00 0.00 48 1020.4
20260901214014 94 283 0.0 0.0 0.00 0.00 0.00 51 1020.4
20260901213514 96 263 1.0 1.0 0.00 0.00 0.00 47 1020.8
20260901213008 95 221 0.0 1.0 0.00 0.00 0.00 48 1020.7
20260901212503 95 229 0.0 2.0 0.00 0.00 0.00 48 1020.5
20260901212000 94 241 0.0 1.0 0.00 0.00 0.00 50 1020.5
20260901211455 93 32 0.0 1.0 0.00 0.00 0.00 50 1020.5
20260901210951 93 125 0.0 1.0 0.00 0.00 0.00 51 1020.8
20260901210446 94 221 1.0 2.0 0.00 0.00 0.00 49 1020.7
20260901205942 94 150 1.0 3.0 0.00 0.00 0.00 51 1020.8
20260901205442 94 232 0.0 3.0 0.00 0.00 0.00 50 1021.0
20260901204931 94 310 0.0 2.0 0.00 0.00 0.00 50 1020.7
20260901204428 95 177 0.0 0.0 0.00 0.00 0.00 48 1020.9
20260901203927 94 188 0.0 2.0 0.00 0.00 0.00 50 1021.1
20260901203423 94 111 0.0 6.0 0.00 0.00 0.00 53 1021.1
20260901202918 98 212 0.0 1.0 0.00 0.00 0.00 47 1021.1
20260901202414 97 214 0.0 1.0 0.00 0.00 0.00 48 1021.1
20260901201909 95 238 0.0 0.0 0.00 0.00 0.00 50 1021.1
20260901201408 96 220 1.0 3.0 0.00 0.00 0.00 51 1021.2
20260901200902 95 212 0.0 1.0 0.00 0.00 0.00 47 1021.3
20260901200357 93 64 2.0 4.0 0.00 0.00 0.00 50 1021.4
20260901195856 95 63 2.0 4.0 0.00 0.00 0.00 47 1021.3
20260901195349 96 237 2.0 2.0 0.00 0.00 0.00 49 1021.4
20260901194844 95 238 1.0 1.0 0.00 0.00 0.00 46 1021.6
20260901194338 96 14 2.0 2.0 0.00 0.00 0.00 47 1021.5
20260901193836 95 252 3.0 4.0 0.00 0.00 0.00 48 1021.6
20260901193334 94 225 2.0 2.0 0.00 0.00 0.00 49 1021.5
20260901192829 94 226 1.0 2.0 0.00 0.00 0.00 54 1021.5
20260901192325 95 223 0.0 1.0 0.00 0.00 0.00 50 1021.7
20260901191821 94 68 2.0 3.0 0.00 0.00 0.00 53 1021.7
20260901191315 93 251 1.0 3.0 0.00 0.00 0.00 52 1022.0
20260901190812 92 97 0.0 2.0 0.00 0.00 0.00 51 1021.9
20260901190305 90 245 0.0 0.0 0.00 0.00 0.00 56 1021.9
20260901185803 90 222 2.0 3.0 0.00 0.00 0.00 56 1021.9
20260901185305 91 249 0.0 0.0 0.00 0.00 0.00 57 1022.0
20260901184759 92 34 2.0 3.0 0.00 0.00 0.00 54 1022.0
20260901184253 95 173 0.0 1.0 0.00 0.00 0.00 52 1022.0
20260901183749 95 233 0.0 1.0 0.00 0.00 0.00 51 1022.0
20260901183249 93 211 0.0 2.0 0.00 0.00 0.00 53 1022.2
20260901182745 93 128 0.0 2.0 0.00 0.00 0.00 53 1022.2
20260901182244 95 274 3.0 3.0 0.00 0.00 0.00 52 1022.1
20260901181739 93 211 0.0 1.0 0.00 0.00 0.00 54 1022.3
20260901181234 93 26 0.0 3.0 0.00 0.00 0.00 57 1022.2
20260901180733 91 35 2.0 3.0 0.00 0.00 0.00 56 1022.5
20260901180232 93 24 1.0 7.0 0.00 0.00 0.00 55 1022.4
20260901175731 92 60 0.0 0.0 0.00 0.00 0.00 54 1022.4
20260901175226 93 322 1.0 2.0 0.00 0.00 0.00 51 1022.6
20260901174721 93 237 1.0 4.0 0.00 0.00 0.00 53 1022.6
20260901174217 93 8 2.0 3.0 0.00 0.00 0.00 51 1022.7
20260901173713 93 248 0.0 2.0 0.00 0.00 0.00 55 1022.7
20260901173208 91 271 0.0 2.0 0.00 0.00 0.00 55 1022.7
20260901172704 92 231 0.0 1.0 0.00 0.00 0.00 54 1022.9
20260901172202 92 218 2.0 3.0 0.00 0.00 0.00 52 1022.8
20260901171701 92 261 1.0 3.0 0.00 0.00 0.00 51 1022.9
20260901171155 91 66 1.0 4.0 0.00 0.00 0.00 53 1023.0
20260901170654 91 55 3.0 4.0 0.00 0.00 0.00 54 1023.1
20260901170149 92 318 0.0 1.0 0.00 0.00 0.00 52 1023.2
20260901165648 92 92 4.0 7.0 0.00 0.00 0.00 53 1023.1
20260901165143 92 174 0.0 4.0 0.00 0.00 0.00 55 1023.4
20260901164639 91 105 2.0 3.0 0.00 0.00 0.00 56 1023.4
20260901164129 90 222 0.0 4.0 0.00 0.00 0.00 59 1023.4
20260901163624 91 20 5.0 7.0 0.00 0.00 0.00 57 1023.4
20260901163122 91 262 1.0 2.0 0.00 0.00 0.00 58 1023.3
20260901162618 91 218 1.0 3.0 0.00 0.00 0.00 58 1023.3
20260901162112 91 67 0.0 2.0 0.00 0.00 0.00 58 1023.6
20260901161611 91 242 1.0 1.0 0.00 0.00 0.00 58 1023.7
20260901161110 90 285 1.0 2.0 0.00 0.00 0.00 60 1023.7
20260901160607 90 260 0.0 3.0 0.00 0.00 0.00 60 1023.9
20260901155601 91 244 2.0 4.0 0.00 0.00 0.00 59 1023.7
20260901155057 90 233 2.0 2.0 0.00 0.00 0.00 62 1024.1
20260901154556 89 240 1.0 3.0 0.00 0.00 0.00 62 1023.9
20260901154045 90 262 0.0 1.0 0.00 0.00 0.00 61 1023.9
20260901153545 90 9 0.0 2.0 0.00 0.00 0.00 63 1024.2
20260901153040 88 76 0.0 1.0 0.00 0.00 0.00 65 1023.9
20260901152535 88 252 2.0 2.0 0.00 0.00 0.00 66 1024.1
20260901152034 88 251 1.0 6.0 0.00 0.00 0.00 68 1024.2
20260901151529 89 259 2.0 2.0 0.00 0.00 0.00 65 1024.1
20260901151028 89 243 0.0 2.0 0.00 0.00 0.00 65 1024.1
20260901150526 87 239 2.0 2.0 0.00 0.00 0.00 69 1024.2
20260901150020 87 246 2.0 3.0 0.00 0.00 0.00 71 1024.2
20260901145518 87 246 2.0 2.0 0.00 0.00 0.00 70 1024.4
20260901145013 88 245 0.0 2.0 0.00 0.00 0.00 69 1024.2
20260901144509 87 231 0.0 2.0 0.00 0.00 0.00 69 1023.9
20260901144004 86 46 0.0 2.0 0.00 0.00 0.00 72 1023.9
20260901143459 86 244 0.0 2.0 0.00 0.00 0.00 72 1024.2
20260901142955 86 243 0.0 2.0 0.00 0.00 0.00 70 1024.4
20260901142450 85 241 0.0 1.0 0.00 0.00 0.00 71 1024.3
20260901141944 85 241 1.0 2.0 0.00 0.00 0.00 70 1024.3
20260901141439 86 110 0.0 2.0 0.00 0.00 0.00 69 1024.1
20260901140934 85 260 1.0 2.0 0.00 0.00 0.00 68 1024.3
20260901140432 85 23 0.0 1.0 0.00 0.00 0.00 69 1023.8
20260901135927 85 56 1.0 3.0 0.00 0.00 0.00 71 1023.8
20260901135421 86 11 2.0 2.0 0.00 0.00 0.00 70 1024.1
20260901134917 86 72 0.0 0.0 0.00 0.00 0.00 72 1023.8
20260901134413 86 72 0.0 0.0 0.00 0.00 0.00 72 1023.7
20260901133913 85 126 0.0 0.0 0.00 0.00 0.00 74 1023.9
20260901133412 85 33 0.0 0.0 0.00 0.00 0.00 72 1023.7
20260901132911 83 34 1.0 1.0 0.00 0.00 0.00 74 1023.9
20260901132405 84 29 0.0 0.0 0.00 0.00 0.00 72 1024.1
20260901131905 84 241 0.0 0.0 0.00 0.00 0.00 74 1023.8
20260901131404 83 241 0.0 0.0 0.00 0.00 0.00 75 1023.8
20260901130900 82 241 0.0 0.0 0.00 0.00 0.00 76 1023.6
20260901130354 82 241 0.0 0.0 0.00 0.00 0.00 77 1023.7
20260901125852 82 241 0.0 0.0 0.00 0.00 0.00 77 1023.8
20260901125351 80 241 0.0 0.0 0.00 0.00 0.00 79 1023.8
20260901124846 79 241 0.0 0.0 0.00 0.00 0.00 82 1023.6
20260901124342 79 241 0.0 0.0 0.00 0.00 0.00 82 1023.8
20260901123841 79 241 0.0 0.0 0.00 0.00 0.00 83 1023.8
20260901123336 78 241 0.0 0.0 0.00 0.00 0.00 84 1023.9
20260901122834 77 241 0.0 0.0 0.00 0.00 0.00 89 1023.8
20260901122329 76 241 0.0 0.0 0.00 0.00 0.00 89 1023.7
20260901121828 75 241 0.0 0.0 0.00 0.00 0.00 90 1023.8
20260901121324 75 241 0.0 0.0 0.00 0.00 0.00 91 1023.6
20260901120819 75 241 0.0 0.0 0.00 0.00 0.00 91 1023.6
20260901120313 74 241 0.0 0.0 0.00 0.00 0.00 93 1023.4
20260901115808 73 241 0.0 0.0 0.00 0.00 0.00 94 1023.3
20260901115306 73 242 0.0 0.0 0.00 0.00 0.00 95 1023.5
20260901114756 72 242 0.0 0.0 0.00 0.00 0.00 95 1023.3
20260901114251 71 242 0.0 0.0 0.00 0.00 0.00 96 1023.3
20260901113749 71 242 0.0 0.0 0.00 0.00 0.00 97 1023.3
20260901113243 71 242 0.0 0.0 0.00 0.00 0.00 98 1023.2
20260901112738 70 242 0.0 0.0 0.00 0.00 0.00 98 1023.2
20260901112238 70 242 0.0 0.0 0.00 0.00 0.00 98 1023.0
20260901111732 70 242 0.0 0.0 0.00 0.00 0.00 98 1023.1
20260901111226 70 242 0.0 0.0 0.00 0.00 0.00 98 1022.7
20260901110720 70 242 0.0 0.0 0.00 0.00 0.00 98 1022.7
20260901110215 70 242 0.0 0.0 0.00 0.00 0.00 98 1022.8
20260901105712 70 232 0.0 0.0 0.00 0.00 0.00 98 1022.7
20260901105211 70 232 0.0 0.0 0.00 0.00 0.00 98 1022.9
20260901104708 70 232 0.0 0.0 0.00 0.00 0.00 98 1022.8
20260901104203 70 232 0.0 0.0 0.00 0.00 0.00 98 1022.7
20260901103702 70 232 0.0 0.0 0.00 0.00 0.00 98 1022.9
20260901103157 70 232 0.0 0.0 0.00 0.00 0.00 98 1022.8
20260901102652 70 226 0.0 0.0 0.00 0.00 0.00 98 1022.7
20260901102151 70 229 0.0 0.0 0.00 0.00 0.00 98 1022.7
20260901101648 70 228 0.0 0.0 0.00 0.00 0.00 99 1022.6
20260901101146 70 228 0.0 0.0 0.00 0.00 0.00 99 1022.6
20260901100641 70 228 0.0 0.0 0.00 0.00 0.00 98 1022.5
20260901100136 70 228 0.0 0.0 0.00 0.00 0.00 98 1022.4
20260901095634 70 228 0.0 0.0 0.00 0.00 0.00 98 1022.4
20260901095132 70 228 0.0 0.0 0.00 0.00 0.00 98 1022.5
20260901094626 70 228 0.0 0.0 0.00 0.00 0.00 99 1022.3
20260901094121 70 227 0.0 0.0 0.00 0.00 0.00 98 1022.4
20260901093616 70 227 0.0 0.0 0.00 0.00 0.00 98 1022.2
20260901093115 70 227 0.0 0.0 0.00 0.00 0.00 98 1022.4
20260901092611 70 227 0.0 0.0 0.00 0.00 0.00 98 1022.3
20260901092107 70 227 0.0 0.0 0.00 0.00 0.00 98 1022.4
20260901091602 70 227 0.0 0.0 0.00 0.00 0.00 97 1022.4
20260901091057 71 227 0.0 0.0 0.00 0.00 0.00 97 1022.4
20260901090557 71 225 0.0 0.0 0.00 0.00 0.00 97 1022.2
20260901090053 71 227 0.0 0.0 0.00 0.00 0.00 97 1022.2
20260901085548 71 225 0.0 0.0 0.00 0.00 0.00 97 1022.4
20260901085044 71 222 0.0 0.0 0.00 0.00 0.00 97 1022.4
20260901084540 71 221 0.0 0.0 0.00 0.00 0.00 97 1022.3
20260901084036 71 220 0.0 0.0 0.00 0.00 0.00 97 1022.3
20260901083530 71 220 0.0 0.0 0.00 0.00 0.00 97 1022.1
20260901083028 71 215 0.0 0.0 0.00 0.00 0.00 97 1022.1
20260901082524 71 226 0.0 0.0 0.00 0.00 0.00 97 1022.0
20260901082019 71 226 0.0 0.0 0.00 0.00 0.00 97 1022.1
20260901081514 71 226 0.0 0.0 0.00 0.00 0.00 96 1022.2
20260901081009 71 226 0.0 0.0 0.00 0.00 0.00 96 1022.2
20260901080508 71 229 0.0 0.0 0.00 0.00 0.00 96 1022.2
20260901080008 71 229 0.0 0.0 0.00 0.00 0.00 96 1022.1
20260901075504 72 229 0.0 0.0 0.00 0.00 0.00 96 1022.5
20260901075002 72 229 0.0 0.0 0.00 0.00 0.00 96 1022.3
20260901074457 72 229 0.0 0.0 0.00 0.00 0.00 96 1022.1
20260901073952 71 229 0.0 0.0 0.00 0.00 0.00 96 1022.2
20260901073449 71 229 0.0 0.0 0.00 0.00 0.00 96 1022.2
20260901070508 72 229 0.0 0.0 0.00 0.00 0.00 96 1022.5
20260901070003 72 229 0.0 0.0 0.00 0.00 0.00 96 1022.5
20260901065457 72 229 0.0 0.0 0.00 0.00 0.00 97 1022.5